This is the latest recevied weather packets stored in our database for station/object N9DMT-13. If no packets are shown the sender has not sent any weather packets the latest 10 day(s).
| Time | Temp. | Humidity | Pressure | Rain* | Wind** | Luminosity | Snow |
|---|---|---|---|---|---|---|---|
| 1777496788 | 11.11° C | 47% | 984.1 hPa | 0 mm | - | - | - |
| 1777496488 | 12.22° C | 46% | 984 hPa | 0 mm | - | - | - |
| 1777496187 | 13.33° C | 44% | 983.7 hPa | 0 mm | - | - | - |
| 1777495887 | 12.78° C | 45% | 984 hPa | 0 mm | - | - | - |
| 1777495586 | 12.22° C | 47% | 984.1 hPa | 0 mm | - | - | - |
| 1777495285 | 12.78° C | 47% | 984 hPa | 0 mm | - | - | - |
| 1777494985 | 12.22° C | 45% | 984.2 hPa | 0 mm | - | - | - |
| 1777494684 | 12.78° C | 46% | 984.3 hPa | 0 mm | - | - | - |
| 1777494383 | 13.33° C | 49% | 984.2 hPa | 0 mm | - | - | - |
| 1777494083 | 12.22° C | 52% | 984.4 hPa | 0 mm | - | - | - |
| 1777493782 | 12.22° C | 47% | 984.5 hPa | 0 mm | - | - | - |
| 1777493481 | 11.67° C | 51% | 984.5 hPa | 0 mm | - | - | - |
| 1777493180 | 11.11° C | 51% | 984.6 hPa | 0 mm | - | - | - |
| 1777492882 | 10° C | 58% | 984.8 hPa | 0 mm | - | - | - |
| 1777492579 | 10° C | 60% | 984.6 hPa | 0 mm | - | - | - |
| 1777492278 | 10° C | 60% | 984.5 hPa | 0 mm | - | - | - |
| 1777491977 | 10° C | 60% | 984.7 hPa | 0 mm | - | - | - |
| 1777491677 | 10° C | 60% | 984.8 hPa | 0 mm | - | - | - |
| 1777491376 | 10° C | 60% | 984.8 hPa | 0 mm | - | - | - |
| 1777491075 | 10° C | 60% | 984.7 hPa | 0 mm | - | - | - |
| 1777490774 | 10° C | 60% | 984.7 hPa | 0 mm | - | - | - |
| 1777490474 | 10° C | 59% | 984.7 hPa | 0 mm | - | - | - |
| 1777490173 | 9.44° C | 61% | 984.6 hPa | 0 mm | - | - | - |
| 1777489872 | 9.44° C | 62% | 984.6 hPa | 0 mm | - | - | - |
| 1777489572 | 10° C | 60% | 984.8 hPa | 0 mm | - | - | - |
* Rain latest hour (hover to see other rain measurements)
** Current wind speed in m/s (hover to see current wind gust speed)